www.pogodaiklimat.ru

ПОГОДА в Морхеде, KY

  • Прогноз погоды в Морхеде
  • Монитор погоды в Морхеде
  • Климат в Морхеде

АРХИВ ПОГОДЫ в Морхеде

Время (UTC), дата Ветер
(напр.,м/с)
 
Видим.   Явления Облачность Т
(С)
Тd
(С)
f
(%)
Тe
(С)
Тes
(С)
Комфортность

P
(гПа)

Po
(гПа)
Тmin
(С)
Tmax
(С)
R
(мм)
SD
(см)
23:20 25.03 С  6 км  слабый дождь  10/10 210 м  +6.0  +5.0  93  +1  +1      980.6         
23:35 25.03 С  10 км  слабый дождь  10/10 240 м  +6.0  +5.0  93  +1  +1      980.9         
23:55 25.03 С  4
{8} 
8 км  слабый дождь  10/10 270 м  +6.0  +5.0  93  +1  +1      981.2         
00:15 26.03 С  4
{9} 
13 км    10/10 240 м  +6.0  +5.0  93  +2  +2      981.5         
00:20 26.03 С  13 км  слабый дождь  10/10 240 м  +6.0  +4.0  87  +1  +1      981.5         
00:35 26.03 С  5
{10} 
16 км    10/10 270 м  +6.0  +4.0  87  +1  +1      981.9         
00:55 26.03 СВ  4
{7} 
16 км    10/10 390 м  +6.0  +4.0  87  +2  +2      982.2         
01:15 26.03 СВ  4
{7} 
16 км    10/10 1080 м  +6.0  +3.0  81  +2  +2      982.5         
01:20 26.03 С  16 км    10/10 1080 м  +6.0  +3.0  81  +2  +2      982.8         
01:35 26.03 С  16 км    10/10 1110 м  +6.0  +2.0  75  +2  +2      982.8         
01:55 26.03 С  16 км    10/10 1110 м  +6.0  +3.0  81  +2  +2      983.2         
02:00 26.03 С  16 км    10/10 1170 м  +6.0  +3.0  81  +2  +2      983.2         
02:15 26.03 С  16 км    10/10 510 м  +6.0  +3.0  81  +2  +2      983.2         
02:20 26.03 С  16 км    10/10 480 м  +6.0  +3.0  81  +2  +2      983.2         
02:35 26.03 С  16 км    10/10 510 м  +5.0  +3.0  87  +1  +1      983.2         
02:55 26.03 С  16 км    10/10 510 м  +5.0  +2.0  81  +1  +1      983.5         
03:00 26.03 С  16 км    10/10 510 м  +5.0  +1.0  75  +1  +1      983.5         
03:15 26.03 нст  16 км    10/10 1500 м  +4.0  -1.0  70  +1  +1      983.5         
03:20 26.03 С  16 км    8/8 1500 м  +4.0  -1.0  70  0  0      983.8         
03:35 26.03 С  16 км    5/5 1170 м  +3.0  -2.0  70  -1  -1      983.8         
03:40 26.03 С  16 км    2/2 1200 м  +3.0  -2.0  70  -2  -2      983.8         
03:55 26.03 С  16 км    8/8 1170 м  +3.0  -3.0  65  -2  -2      983.8         
04:15 26.03 С  16 км    10/10 1110 м  +2.0  -3.0  69  -2  -2      984.1         
04:35 26.03 С  16 км    10/10 1110 м  +2.0  -3.0  69  -2  -2      984.1         
04:55 26.03 С  16 км    10/10 1080 м  +2.0  -4.0  64  -2  -2      984.5         
05:00 26.03 С  4
{7} 
16 км    10/10 1110 м  +2.0  -5.0  60  -3  -3      984.5         
05:15 26.03 СВ  16 км    10/10 1110 м  +1.0  -6.0  60  -3  -3      984.5         
05:35 26.03 СВ  16 км    10/10 1140 м  +1.0  -8.0  51  -3  -3      984.8         
05:55 26.03 С  16 км    10/10 1170 м  +1.0  -9.0  47  -3  -3      985.1         
06:00 26.03 СВ  16 км    10/10 1170 м  +1.0  -9.0  47  -3  -3      985.1         
06:15 26.03 СВ  16 км    10/10 1200 м  +1.0  -9.0  47  -3  -3      985.1         
06:35 26.03 С  16 км    10/10 1260 м  +1.0  -9.0  47  -4  -4      985.4         
06:40 26.03 С  2
{5} 
16 км    10/10 1260 м  +1.0  -9.0  47  -2  -2      985.4         
06:55 26.03 С  16 км    10/10 1260 м  0.0  -9.0  51  -5  -5      985.8         
07:15 26.03 СВ  16 км    10/10 1290 м  0.0  -9.0  51  -4  -4      985.4         
07:35 26.03 С  16 км    10/10 1320 м  0.0  -9.0  51  -4  -4      985.8         
07:40 26.03 СВ  16 км    10/10 1350 м  0.0  -9.0  51  -5  -5      985.8         
07:55 26.03 нст  16 км    10/10 1350 м  0.0  -9.0  51  -4  -4      985.4         
08:15 26.03 СВ  16 км    10/10 1290 м  0.0  -9.0  51  -2  -2      985.8         
08:35 26.03 СВ  16 км    5/5 1290 м  -1.0  -9.0  55  -4  -4      986.1         
08:55 26.03 СВ  16 км    ясно  -1.0  -10.0  50  -5  -5      986.4         
09:00 26.03 СВ  16 км    ясно  -1.0  -9.0  55  -5  -5      986.4         
09:15 26.03 СВ  16 км    ясно  -1.0  -9.0  55  -5  -5      986.7         
09:35 26.03 СВ  16 км    ясно  -1.0  -9.0  55  -5  -5      987.1         
09:55 26.03 СВ  16 км    ясно  -1.0  -9.0  55  -5  -5      987.4         
10:15 26.03 С  16 км    ясно  -1.0  -9.0  55  -5  -5      987.7         
10:20 26.03 С  16 км    ясно  -1.0  -9.0  55  -5  -5      987.7         
10:35 26.03 нст  16 км    ясно  -1.0  -9.0  55  -5  -5      987.7         

 

Местоположение метеостанции Clyde A. Thomas Regional Airport: широта 38.2150 долгота -83.5874 высота над уровнем моря 319 м.

В архиве по умолчанию представлена погода в Морхеде за последние 1-2 суток. Обновление информации о фактической погоде в базе происходит ежечасно! Архивные данные за месяц целиком и за предыдущие месяцы Вы можете получить, выбрав интересующий диапазон дат из раскрывающегося списка и нажав кнопку "Ввод!".

Внимание! Архив погоды МЕТАР в базе сайта хранится не более 60 дней. Нет смысла пытаться выбрать более раннюю дату.

Внимание! Время в таблицах - всемирное. Для получения местного времени необходимо прибавить поправку, которая в Морхеде равна -5 ч.

Ветер - указаны скорость ветра в м/с и направление, откуда дует ветер: С - северный, СВ - северо-восточный, В - восточный, ЮВ - юго-восточный, Ю - южный, ЮЗ - юго-западный, З - западный, СЗ - северо-западный.
Видимость - горизонтальная дальность видимости в метрах или километрах. При видимости от 1 до 10 км при отсутствии осадков обычно наблюдается дымка, при ухудшении видимости до 1 км и менее - туман. В сухую погоду видимость может ухудшаться дымом, пылью или мглою.
Атмосферные явления - указаны явления, наблюдавшиеся в указанный момент времени.
Облачность - указаны через наклонную черту верхняя и нижняя облачность в баллах и высота нижней границы облаков в метрах. Внимание: облачность, как и прочие метеорологические величины в США измеряются автоматическими метеостанциями. Указанные значения в баллах носят условный характер и показывают процент времени, в течение которого, в среднем, лазерный луч высотомера отражался от облаков обратно.
T - Температура воздуха - температура, измеренная на высоте 2 м над землей.
Td - Температура точки росы - температура, при понижении до которой содержащийся в воздухе водяной пар достигнет насыщения.
f - Относительная влажность воздуха - влажноcть воздуха, измеренная на высоте 2 м над землей.
Te - Эффективная температура - температура, которую ощущает одетый по сезону человек в тени. Характеристика душности погоды. При расчете учитывается влияние влажности воздуха и скорости ветра на теплоощущения человека.
Tes - Эффективная температура на солнце - температура, которую ощущает человек, с поправкой на солнечный нагрев. Характеристика знойности погоды. Зависит от высоты солнца над горизонтом, облачности и скорости ветра. Ночью, в пасмурную погоду, а также при ветре 12 м/с и более поправка равна нулю.
P - Атмосферное давление - приведенное к уровню моря атмосферное давление.
Po - Атмосферное давление - измеренное на уровне метеостанции атмосферное давление.
Tmin - Минимальная температура - минимум температуры воздуха на высоте 2 м над землей.
Tmax - Максимальная температура - максимум температуры воздуха на высоте 2 м над землей.
R - Количество осадков - Количество выпавших осадков за 3 или 6 часов, мм.
SD - Снежный покров - Высота снежного покрова, см.